NOAA 16 DEB

Satellite information

Favourite Embed

Satellite Type and Status

DEBRISIN ORBIT

Key statistics

Satellite NOAA 16 DEB at a glance.

Uptime

9215

Days in orbit

Revolutions

≈ 14.5

Per day

Orbit

SSO

Sun Synchronous Orbit

Inclination

98.8

Latest

Satellite identification and parameters

Extended collection of information and parameters for NOAA 16 DEB.

Object identification

Identified? True

Debris? True

Object name: NOAA 16 DEB

International designator: 2000-055PM

Object number (NORAD): 41707

Object ID (CCSDS): 41707

Country: UNITED STATES OF AMERICA (US)

Current information (Y/N): Y

RCS size: SMALL

Orbital parameters

Period: 99.393 minutes

Inclination: 98.8381 deg

SMA: 7107.744 km

Apoapsis: 745.168 km

Periapsis: 714.05 km

RAAN: 123.1627 deg

Eccentricy: 0.00218902

Argument of periapsis: 329.021 deg

Mean anomaly: 30.9689 deg

Mean motion: 14.48788804 rev/day

Mean motion (dot): 0.00014725 rev/day2

B* drag term: 0.0038933532 1/REarth

Two-line elements (TLE)

Creation date: Dec. 13, 2025, 4:32 a.m.

Reference frame: TEME

Reference center: EARTH

Epoch: Dec. 12, 2025, 8:20 a.m. UTC

TLE line 0: 0 NOAA 16 DEB

TLE line 1: 1 41707U 00055PM 25346.34726118 .00014725 00000-0 38934-2 0 9999

TLE line 2: 2 41707 98.8381 123.1627 0021890 329.0210 30.9689 14.48788804501853

Live tracking on map

Real-time ground track for satellite NOAA 16 DEB.

In-orbit conjunctions

A list of the most updated potential collisions computed for object NOAA 16 DEB.

Target Orbit TCA Probability of collision Miss distance Type
IRIDIUM 911 LEO 2025-08-23 20:12:47 0.0001368623 886.0 (m) PAYLOAD
COSMOS 1125 LEO 2024-08-17 00:04:08 0.0002607833 349.0 (m) PAYLOAD

Associated space launch

The NOAA K, L and M POES satellites begin the fifth generation of improved environmental monitoring in support of NOAA missions. The instrument payload has significant improvements and additions/deletions. The instrument changes have effected the spacecraft subsystems and data formats.

NOAA 16 DEB was lifted into orbit during the mission ‘Titan II SLV | NOAA 16’, on board a Titan II SLV space rocket.

The launch took place on Sept. 21, 2000, 10:22 a.m. from Space Launch Complex 4W.

For more information about the launch, click the button.

Launch to space Titan II SLV | NOAA 16
Titan II SLV | NOAA 16

Agency: N/A

Status: Launch Successful

Launch date: Sept. 21, 2000, 10:22 a.m. UTC

Rocket: Titan II SLV

Launch pad: Space Launch Complex 4W

Location: Vandenberg SFB, CA, USA

...

Latest news about this satellite

There are no fresh news available about this satellite. Check back as we update our databases every day.


Newsletter sign-up

Weekly statistics, charts and insights to help you stay on top of the space industry.